Glen Ullin, ND

2:38 PM CST on February 27, 2017 (GMT -0600)
Glen Ullin Rgnl, Glen Ullin,

Weather History for KD57 - March, 2014

Change the Weather History Date:

Monday, March 3, 2014

  Actual Average (KDIK) Record (KDIK)
Temperature  
Mean Temperature 6 °F -  
Max Temperature 12 °F 33 °F 67 °F (1905)
Min Temperature 1 °F 12 °F -19 °F (1917)
Degree Days  
Heating Degree Days 58    
Moisture  
Dew Point -7 °F    
Average Humidity 54    
Maximum Humidity 67    
Minimum Humidity 47    
Precipitation  
Precipitation 0.00 in - - ()
Sea Level Pressure  
Sea Level Pressure 30.06 in    
Wind  
Wind Speed 10 mph (SE)    
Max Wind Speed 16 mph    
Max Gust Speed 22 mph    
Visibility 10 miles    
Events Snow    
Averages and records for this station are not official NWS values.
T = Trace of Precipitation, MM = Missing Value Source: NWS Daily Summary

Daily Weather History Graph

Daily Weather History Graph

Search for Another Location

Airport or City:

Trip Planner

Search our weather history database for the weather conditions in past years. The results will help you decide how hot, cold, wet, or windy it might be!

Date:

Astronomy

Mar. 03, 2014 Rise Set
Actual Time 6:23 AM MST 5:36 PM MST
Civil Twilight 5:52 AM MST 6:06 PM MST
Nautical Twilight 5:17 AM MST 6:41 PM MST
Astronomical Twilight 4:42 AM MST 7:17 PM MST
Moon 7:21 AM MST (3/3) 8:55 PM MST (3/3)
Length of Visible Light 12h 13m
Length of Day
11h 12m
Waxing Crescent, 8% of the Moon is Illuminated
Mar 3
Waxing Crescent
Mar 8
First Quarter
Mar 16
Full
Mar 23
Last Quarter
Mar 30
New

Hourly Weather History & Observations

Time (MST) Temp. Windchill Dew Point Humidity Pressure Visibility Wind Dir Wind Speed Gust Speed Precip Events Conditions
12:15 AM 3.2 °F -11.3 °F -13.0 °F 47% 30.26 in 10.0 mi SSE 9.2 mph - N/A   Overcast
12:35 AM 3.2 °F -12.2 °F -13.0 °F 47% 30.26 in 10.0 mi SSE 10.4 mph - N/A   Overcast
12:55 AM 3.2 °F -13.1 °F -13.0 °F 47% 30.25 in 10.0 mi SSE 11.5 mph - N/A   Overcast
1:15 AM 3.2 °F -13.1 °F -13.0 °F 47% 30.23 in 10.0 mi SE 11.5 mph - N/A   Overcast
1:35 AM 3.2 °F -15.3 °F -13.0 °F 47% 30.22 in 10.0 mi SSE 15.0 mph - N/A   Mostly Cloudy
1:55 AM 1.4 °F -16.9 °F -14.8 °F 47% 30.23 in 10.0 mi SSE 13.8 mph - N/A   Overcast
2:15 AM 1.4 °F -16.9 °F -14.8 °F 47% 30.21 in 10.0 mi SSE 13.8 mph - N/A   Overcast
2:35 AM 1.4 °F -18.2 °F -14.8 °F 47% 30.19 in 10.0 mi SSE 16.1 mph 21.9 mph N/A   Mostly Cloudy
2:55 AM 1.4 °F -16.1 °F -14.8 °F 47% 30.17 in 10.0 mi SSE 12.7 mph 19.6 mph N/A   Overcast
3:15 AM 1.4 °F -16.9 °F -13.0 °F 51% 30.17 in 10.0 mi SSE 13.8 mph 20.7 mph N/A   Overcast
3:35 AM 1.4 °F -16.1 °F -13.0 °F 51% 30.16 in 10.0 mi SE 12.7 mph - N/A   Overcast
3:55 AM 1.4 °F -17.6 °F -13.0 °F 51% 30.16 in 10.0 mi SE 15.0 mph 20.7 mph N/A   Overcast
4:15 AM 1.4 °F -15.3 °F -13.0 °F 51% 30.16 in 10.0 mi SE 11.5 mph - N/A   Overcast
4:35 AM 1.4 °F -16.1 °F -14.8 °F 47% 30.15 in 10.0 mi SE 12.7 mph 18.4 mph N/A   Overcast
4:55 AM 1.4 °F -15.3 °F -13.0 °F 51% 30.13 in 10.0 mi SE 11.5 mph - N/A   Overcast
5:15 AM 1.4 °F -15.3 °F -13.0 °F 51% 30.13 in 10.0 mi ESE 11.5 mph 19.6 mph N/A   Overcast
5:35 AM 1.4 °F -16.1 °F -14.8 °F 47% 30.12 in 10.0 mi SE 12.7 mph 18.4 mph N/A   Overcast
5:55 AM 1.4 °F -15.3 °F -14.8 °F 47% 30.12 in 10.0 mi SE 11.5 mph 19.6 mph N/A   Overcast
6:15 AM 1.4 °F -18.2 °F -13.0 °F 51% 30.10 in 10.0 mi SE 16.1 mph - N/A   Overcast
6:35 AM 1.4 °F -16.1 °F -13.0 °F 51% 30.10 in 10.0 mi SE 12.7 mph 19.6 mph N/A   Overcast
6:55 AM 1.4 °F -18.2 °F -13.0 °F 51% 30.08 in 10.0 mi SE 16.1 mph - N/A   Overcast
7:15 AM 1.4 °F -15.3 °F -13.0 °F 51% 30.06 in 10.0 mi ESE 11.5 mph 19.6 mph N/A   Overcast
7:35 AM 3.2 °F -13.9 °F -13.0 °F 47% 30.06 in 10.0 mi ESE 12.7 mph - N/A   Overcast
7:55 AM 3.2 °F -12.2 °F -13.0 °F 47% 30.09 in 10.0 mi SE 10.4 mph - N/A   Overcast
8:15 AM 3.2 °F -10.3 °F -13.0 °F 47% 30.10 in 10.0 mi ESE 8.1 mph - N/A   Overcast
8:35 AM 3.2 °F -12.2 °F -13.0 °F 47% 30.09 in 10.0 mi SE 10.4 mph - N/A   Overcast
8:55 AM 3.2 °F -12.2 °F -11.2 °F 51% 30.09 in 10.0 mi SE 10.4 mph - N/A   Overcast
9:15 AM 3.2 °F -13.1 °F -11.2 °F 51% 30.07 in 10.0 mi SSE 11.5 mph - N/A   Overcast
9:35 AM 3.2 °F -14.6 °F -9.4 °F 56% 30.05 in 10.0 mi SE 13.8 mph - N/A   Overcast
9:55 AM 5.0 °F -10.8 °F -9.4 °F 52% 30.05 in 10.0 mi ESE 11.5 mph - N/A   Overcast
10:15 AM 5.0 °F -9.1 °F -9.4 °F 52% 30.05 in 10.0 mi SE 9.2 mph 17.3 mph N/A   Overcast
10:35 AM 6.8 °F -9.3 °F -7.6 °F 52% 30.03 in 10.0 mi SE 12.7 mph 18.4 mph N/A   Overcast
10:55 AM 6.8 °F -8.6 °F -7.6 °F 52% 30.03 in 10.0 mi SE 11.5 mph - N/A   Mostly Cloudy
11:15 AM 6.8 °F -7.8 °F -7.6 °F 52% 30.03 in 10.0 mi SE 10.4 mph - N/A   Scattered Clouds
11:35 AM 6.8 °F -6.9 °F -7.6 °F 52% 30.03 in 10.0 mi SE 9.2 mph 17.3 mph N/A   Partly Cloudy
11:55 AM 8.6 °F -3.7 °F -7.6 °F 48% 30.03 in 10.0 mi SSE 8.1 mph - N/A   Partly Cloudy
12:15 PM 8.6 °F -1.3 °F -5.8 °F 52% 30.02 in 10.0 mi Variable 5.8 mph 12.7 mph N/A   Scattered Clouds
12:35 PM 10.4 °F -1.5 °F -5.8 °F 48% 30.01 in 10.0 mi SSE 8.1 mph - N/A   Scattered Clouds
12:55 PM 10.4 °F -2.4 °F -5.8 °F 48% 30.00 in 10.0 mi SSE 9.2 mph - N/A   Mostly Cloudy
1:15 PM 8.6 °F -1.3 °F -5.8 °F 52% 29.99 in 10.0 mi SE 5.8 mph - N/A   Mostly Cloudy
1:35 PM 10.4 °F 0.8 °F -5.8 °F 48% 29.98 in 10.0 mi SE 5.8 mph - N/A   Scattered Clouds
1:55 PM 10.4 °F -0.4 °F -4.0 °F 52% 29.99 in 10.0 mi Variable 6.9 mph - N/A   Scattered Clouds
2:15 PM 10.4 °F -0.4 °F -2.2 °F 57% 29.99 in 7.0 mi SE 6.9 mph 13.8 mph N/A   Scattered Clouds
2:35 PM 12.2 °F - -2.2 °F 53% 30.00 in 7.0 mi Calm Calm 11.5 mph N/A Snow Light Snow
2:55 PM 12.2 °F 1.7 °F -2.2 °F 53% 29.99 in 10.0 mi SE 6.9 mph - N/A   Overcast
3:15 PM 12.2 °F 4.3 °F -2.2 °F 53% 29.99 in 10.0 mi South 4.6 mph - N/A   Overcast
3:35 PM 12.2 °F 1.7 °F -2.2 °F 53% 29.99 in 10.0 mi SSE 6.9 mph - N/A   Overcast
3:55 PM 12.2 °F 6.1 °F -2.2 °F 53% 29.99 in 10.0 mi Variable 3.5 mph - N/A   Overcast
4:15 PM 12.2 °F 2.9 °F -2.2 °F 53% 29.97 in 10.0 mi East 5.8 mph - N/A   Overcast
4:35 PM 12.2 °F - -2.2 °F 53% 29.98 in 10.0 mi Calm Calm - N/A   Overcast
4:55 PM 12.2 °F 4.3 °F -2.2 °F 53% 29.97 in 10.0 mi ESE 4.6 mph - N/A   Overcast
5:15 PM 12.2 °F 2.9 °F -2.2 °F 53% 29.98 in 10.0 mi ESE 5.8 mph - N/A   Overcast
5:35 PM 12.2 °F 6.1 °F -0.4 °F 57% 29.99 in 10.0 mi ESE 3.5 mph - N/A   Overcast
5:55 PM 12.2 °F - -2.2 °F 53% 30.00 in 10.0 mi Calm Calm - N/A   Overcast
6:15 PM 12.2 °F 4.3 °F -0.4 °F 57% 29.99 in 10.0 mi SE 4.6 mph - N/A   Overcast
6:35 PM 12.2 °F - -0.4 °F 57% 30.00 in 10.0 mi Calm Calm - N/A   Overcast
6:55 PM 12.2 °F 4.3 °F -0.4 °F 57% 29.99 in 10.0 mi ESE 4.6 mph - N/A   Overcast
7:15 PM 12.2 °F - -0.4 °F 57% 30.01 in 10.0 mi Calm Calm - N/A   Overcast
7:35 PM 12.2 °F -0.2 °F -0.4 °F 57% 30.00 in 10.0 mi ENE 9.2 mph - N/A   Overcast
7:55 PM 10.4 °F -1.5 °F -0.4 °F 62% 29.99 in 10.0 mi East 8.1 mph - N/A   Mostly Cloudy
8:15 PM 8.6 °F -2.6 °F -0.4 °F 67% 30.00 in 10.0 mi East 6.9 mph - N/A   Mostly Cloudy
8:35 PM 8.6 °F -2.6 °F -0.4 °F 67% 29.99 in 10.0 mi ESE 6.9 mph - N/A   Overcast
8:55 PM 8.6 °F -2.6 °F -0.4 °F 67% 30.00 in 10.0 mi East 6.9 mph - N/A   Overcast
9:15 PM 8.6 °F -1.3 °F -0.4 °F 67% 30.01 in 10.0 mi East 5.8 mph - N/A   Overcast
9:35 PM 8.6 °F -2.6 °F -0.4 °F 67% 30.01 in 10.0 mi East 6.9 mph - N/A   Overcast
9:55 PM 8.6 °F -3.7 °F -0.4 °F 67% 30.01 in 10.0 mi East 8.1 mph - N/A   Overcast
10:15 PM 8.6 °F -2.6 °F -0.4 °F 67% 30.01 in 10.0 mi ESE 6.9 mph - N/A   Overcast
10:35 PM 8.6 °F -4.7 °F -0.4 °F 67% 30.00 in 10.0 mi ESE 9.2 mph - N/A   Overcast
10:55 PM 8.6 °F -2.6 °F -0.4 °F 67% 30.00 in 10.0 mi East 6.9 mph - N/A   Overcast
11:15 PM 8.6 °F -2.6 °F -0.4 °F 67% 30.00 in 10.0 mi East 6.9 mph - N/A   Overcast
11:35 PM 8.6 °F -3.7 °F -0.4 °F 67% 29.99 in 10.0 mi ESE 8.1 mph - N/A   Overcast
11:55 PM 8.6 °F -3.7 °F -0.4 °F 67% 29.99 in 10.0 mi ESE 8.1 mph - N/A   Overcast